Location: Bruneau Dunes Observatory
(42.9024°N, 115.6902°W)
Time: 13:38:56
(UTC-07:00)

Daily predictions for brighter satellites

Satellite Brightness Start Highest point End
(mag) Time Altitude Azimuth Time Altitude Azimuth Time Altitude Azimuth
Cosmos 2026 Rocket 4.4 17:33:02 10° NNW 17:39:24 74° W 17:45:40 10° S
Cosmos 2266 Rocket 4.4 17:36:26 10° N 17:42:10 41° ENE 17:47:58 10° SE
Cosmos 1743 2.7 17:39:29 10° N 17:43:22 81° E 17:47:17 10° S
USA 238 DEB 3.9 17:38:40 10° NW 17:45:50 89° SW 17:53:02 10° SSE
USA 238 3.9 17:38:46 10° NW 17:45:56 89° SW 17:53:08 10° SSE
YAOGAN 1 3.6 17:42:28 10° ESE 17:45:59 25° ENE 17:49:30 10° NNE
Cosmos 724 4.3 17:40:35 10° NNW 17:46:22 66° NE 17:52:08 10° SE
Cosmos 1697 Rocket 3.5 17:41:29 10° SSE 17:46:25 32° ESE 17:51:22 10° NE
Meteor 1-13 Rocket 4.3 17:43:12 10° S 17:48:43 64° E 17:54:24 10° NNE
Cosmos 1125 Rocket 3.7 17:44:19 10° S 17:49:27 54° ESE 17:54:37 10° NNE
IRAS Rocket 4.2 17:44:08 10° SSE 17:49:33 66° ENE 17:54:59 10° N
Cosmos 1269 Rocket 4.3 17:45:56 10° N 17:51:04 47° ENE 17:56:08 10° SE
Cosmos 1655 Rocket 4.3 17:46:35 10° N 17:52:59 81° W 17:59:23 10° S
Cosmos 389 Rocket 3.5 17:50:00 10° NNW 17:53:22 50° W 17:56:42 10° S
ERS-2 3.8 17:51:55 10° E 17:53:59 15° ENE 17:56:03 10° NNE
PSLV R/B 3.4 17:52:21 10° WSW 17:55:31 61° S 17:58:38 10° E
Cosmos 372 Rocket 4.1 17:51:00 10° S 17:56:06 59° ESE 18:01:11 10° NNE
Cosmos 1048 Rocket 4.1 17:51:03 10° NNW 17:56:25 64° ENE 18:01:43 10° SSE
SJ 16-02 1.4 17:56:05 10° S 18:00:25 64° ESE 18:04:49 10° NNE
NOSS 5 (C) 4.4 17:57:38 10° SW 18:01:30 89° NW 18:04:36 11° NE
Cosmos 2082 3.7 17:56:15 10° NNW 18:01:55 82° ENE 18:07:33 10° SSE
COSMO-SKYMED 1 3.8 17:58:52 10° NE 18:02:22 23° E 18:05:49 10° SSE
CZ-4 R/B 1.5 18:00:12 10° SSE 18:03:58 49° ENE 18:07:50 10° N
Abrixas rocket 3.4 18:01:12 10° WNW 18:04:07 29° N 18:06:20 14° NE
CORIOLIS 4.1 18:04:00 10° SSE 18:09:22 71° ENE 18:14:45 10° N
Meteor 1-19 Rocket 4.5 18:03:48 10° SSW 18:09:30 78° W 18:15:21 10° N
AQUARIUS 4.1 18:06:44 10° SSE 18:11:13 84° ENE 18:15:44 10° NNW
Cosmos 2227 Rocket 2.6 18:06:21 10° NNW 18:11:59 67° WSW 18:17:34 10° SSE
NOSS 3-2 (A) 4.0 18:05:41 10° NW 18:13:14 82° NE 18:21:29 10° SE
Cosmos 1271 Rocket 4.3 18:11:59 10° NNW 18:15:33 38° W 18:19:09 10° SSW
ISS -0.5 18:15:16 10° W 18:17:07 14° SW 18:18:59 10° SSW
Cosmos 1025 Rocket 3.5 18:17:34 10° SSE 18:21:31 36° E 18:25:13 11° NNE
NOSS 3-2 (C) 4.0 18:14:46 10° NNW 18:22:18 74° NE 18:30:31 10° SE
ATLAS 3B R/B 3.5 18:16:49 10° NW 18:23:15 53° WSW 18:29:32 10° SSE
Cosmos 2084 3.5 18:20:47 10° SSW 18:24:51 51° ESE 18:27:14 21° NE
Meteor 2-9 Rocket 4.4 18:20:38 10° NNW 18:26:06 74° W 18:31:25 10° S
Okean 2 3.8 18:22:34 10° SSE 18:26:24 41° E 18:29:42 13° NNE
Gbstr 26 Del rocket 4.4 18:19:16 10° SW 18:27:25 90° SSE 18:33:05 19° ENE
Cosmos 1980 Rocket 2.6 18:23:03 10° S 18:28:19 41° ESE 18:32:15 17° NE
ATLAS 2AS CENTAUR R/B 3.9 18:21:49 10° WSW 18:29:18 45° NW 18:37:05 10° NNE
Cosmos 1656 3.9 18:27:31 10° SSW 18:33:05 72° WNW 18:38:36 10° NNE
Cosmos 1536 Rocket 4.3 18:31:43 10° SSW 18:35:58 54° W 18:40:14 10° N
CZ-2C R/B 3.7 18:31:14 10° NNE 18:35:59 87° ESE 18:40:44 10° SSW
Okean 1-7 Rocket 3.9 18:32:31 10° SSE 18:36:38 41° E 18:39:29 18° NNE
USA 215 3.4 18:31:00 10° SE 18:37:32 76° SW 18:44:05 10° NW
Cosmos 2297 Rocket 3.3 18:32:40 10° NW 18:38:06 48° WSW 18:43:30 10° S
SL-24 R/B - RUBIN 2 4.3 18:32:12 10° SSW 18:38:19 62° ESE 18:42:06 21° NE
DELTA 2 R/B (1) 4.2 18:33:44 10° W 18:39:09 54° SSW 18:43:43 15° ESE
Cosmos 1484 Rocket 4.5 18:36:23 10° SSW 18:40:07 37° W 18:43:52 10° NNW
BREEZE-M DEB (TANK) 3.5 18:37:14 10° WNW 18:40:07 70° NNE 18:46:26 12° ESE
Meteor 1-23 Rocket 4.3 18:38:59 10° S 18:44:44 83° W 18:50:27 10° N
NOAA 12 4.1 18:40:25 10° SSE 18:45:31 55° ENE 18:50:39 10° N
MONITOR-E 3.9 18:45:26 10° SSE 18:48:27 69° ENE 18:51:30 10° N
NOSS 3-4 (A) 3.4 18:44:08 10° SW 18:50:22 89° NW 18:54:57 20° NE
NOSS 3-4 (C) 3.4 18:44:13 10° SW 18:50:27 90° E 18:55:01 21° NE
SKYMED 2 3.4 18:46:49 13° NNE 18:50:38 77° ESE 18:54:57 10° S
MOS 1 4.2 18:47:09 10° SSE 18:52:49 82° ENE 18:58:31 10° NNW
Cosmos 1745 Rocket 4.5 18:47:12 10° N 18:52:52 35° ENE 18:58:32 10° SE
BREEZE-M DEB (TANK) 4.5 18:50:26 10° W 18:53:33 36° SSW 19:02:30 10° SE
Cosmos 1606 Rocket 3.7 18:49:28 10° N 18:53:39 45° ENE 18:57:48 10° SSE
NOSS 2-2 (D) 3.8 18:53:56 10° S 18:57:36 40° ESE 18:57:48 40° ESE
DNEPR-1 R/B 4.1 18:54:15 10° NNW 18:59:24 79° NE 19:05:42 10° SE
Cosmos 2227 4.2 18:55:18 10° NNW 19:00:59 56° ENE 19:06:34 10° SE
CENTAUR R/B 3.1 18:53:59 10° NNW 19:01:47 62° NE 19:09:41 12° SE
Lacrosse 5 rocket 3.1 18:59:01 10° S 19:01:05 19° SE 19:01:05 19° SE
FENGYUN 3A 3.5 19:02:15 10° SSE 19:07:38 87° ENE 19:13:02 10° NNW
ALOS 2.3 19:06:30 10° S 19:11:09 81° WSW 19:15:51 10° NNW
Cosmos 2263 Rocket 3.3 19:06:28 10° N 19:09:39 25° NNE 19:09:39 25° NNE
SL-16 R/B 3.1 19:07:38 10° SSE 19:11:34 30° SE 19:11:34 30° SE
NOSS 2-2 (E) 3.3 19:08:55 10° SSW 19:12:48 70° ESE 19:13:04 67° E
SL-8 R/B 4.2 19:08:18 10° SSW 19:12:51 43° SE 19:13:13 42° SE
Cosmos 2322 Rocket 3.1 19:11:11 10° SSE 19:14:52 30° SE 19:14:52 30° SE
Cosmos 1184 Rocket 4.0 19:13:12 10° S 19:15:11 34° S 19:15:11 34° S
Cosmos 494 Rocket 4.3 19:13:25 10° NNW 19:18:40 68° WSW 19:23:51 10° S
RESURS DK-1 2.2 19:14:52 10° SSW 19:18:59 87° ESE 19:19:05 84° ENE
SPOT 3 Rocket 3.7 19:14:26 10° S 19:19:36 72° WSW 19:24:47 10° NNW
NOSS 2-2 (C) 3.4 19:16:11 10° SSW 19:19:45 67° SSE 19:19:45 67° SSE
YAOGAN 1 4.4 19:18:05 10° SSW 19:21:56 31° W 19:25:49 10° NNW
Cosmos 1892 Rocket 3.6 19:17:32 10° S 19:21:25 60° SE 19:21:25 60° SE
EO 1 Del DPAF 3.8 19:21:11 36° NNW 19:22:25 55° WNW 19:26:09 10° SSW
Cosmos 2360 4.3 19:18:24 10° SSW 19:24:07 79° WNW 19:26:48 33° NNE
ERS-2 3.4 19:23:51 10° S 19:27:18 40° W 19:30:48 10° NNW
Thor Agena Rocket 4.3 19:30:07 38° SSE 19:30:07 38° SSE 19:33:39 10° S
Cosmos 2251 Rocket 3.5 19:23:28 10° NNW 19:28:46 83° WSW 19:34:00 10° SSE
Cosmos 1697 Rocket 3.9 19:25:00 10° SW 19:30:15 39° WNW 19:34:09 17° N
Cosmos 2344 3.9 19:24:44 10° S 19:31:48 42° ESE 19:32:09 42° ESE
COSMO-SKYMED 1 4.2 19:35:25 14° NNW 19:38:33 33° WNW 19:42:25 10° SW
SJ 16-02 4.1 19:37:10 10° W 19:39:29 14° NW 19:41:50 10° NNW
COSMOS 2455 4.4 19:35:28 10° NNW 19:38:05 22° N 19:38:05 22° N
S3M 4.0 19:47:06 10° SSW 19:53:13 75° W 19:56:00 34° N
Cosmos 1386 Rocket 4.5 19:57:15 10° N 20:03:40 84° W 20:10:05 10° S
Cosmos 1980 Rocket 3.7 20:07:22 10° WSW 20:12:24 32° NW 20:14:03 27° NNW
CENTAUR R/B 4.3 20:45:09 10° NW 20:52:21 37° WSW 20:57:06 21° SSW
Cosmos 2263 Rocket 4.5 20:50:09 10° NW 20:51:24 17° NW 20:51:24 17° NW
SL-16 R/B 4.3 20:51:17 10° SW 20:53:30 22° WSW 20:53:30 22° WSW
Cosmos 2322 Rocket 4.4 20:54:55 10° SW 20:56:45 20° WSW 20:56:45 20° WSW
